Temp
16 16 16 16 16 16 16 15 15 15 15 15 15 15 14 13 11 11 11 11 10 10 10 10 11 11 12 12 11 11 10 10 10
16 16 16 16 16 16 16 16 16 15 15 15 14 14 14 11 11 11 11 10 10 10 11 11 11 11 11 10 10 10 10 9 10
16 16 16 15 15 15 15 15 15 15 14 15 14 14 13 11 10 10 10 10 10 10 11 11 11 11 11 11 10 10 11 11 11
16 15 15 15 15 15 15 15 15 14 14 14 13 13 13 10 10 10 10 10 11 11 11 11 10 10 10 11 10 10 10 10 10
15 15 15 15 15 15 14 14 14 14 13 13 12 12 10 10 11 10 10 10 11 11 11 10 10 11 11 11 10 9 9 8 9
14 15 15 15 15 14 14 13 13 13 13 12 11 11 11 10 11 10 10 11 11 11 10 10 10 10 10 9 8 8 8 8 10
15 15 15 15 14 13 13 13 12 13 12 11 10 10 10 10 10 10 11 11 11 10 10 10 10 9 8 7 7 7 8 8 8
14 14 14 14 13 13 12 12 12 12 11 9 9 10 10 10 11 11 11 10 9 9 9 8 8 9 9 8 7 8 8 7 8
14 14 14 13 13 12 12 12 12 12 11 9 9 9 9 10 10 10 10 10 10 9 9 8 7 7 7 8 7 7 8 7 7
14 14 14 13 13 12 12 12 11 11 11 9 9 9 10 10 10 10 10 10 9 8 8 8 7 7 7 7 8 8 7 7 6
14 14 13 13 13 12 12 12 11 11 10 10 10 9 9 9 9 9 9 9 8 8 8 8 7 7 6 6 6 7 6 6 6
14 14 13 13 13 12 12 12 11 11 10 10 10 9 9 9 8 8 8 8 8 8 7 7 6 6 6 7 6 6 6 6 6
14 13 13 13 12 12 12 11 10 10 10 10 10 10 10 9 9 9 8 7 7 8 7 6 7 6 6 7 6 6 5 5 5
13 13 13 13 12 12 12 11 11 10 9 10 10 9 9 9 9 8 8 9 7 6 7 7 8 8 6 5 6 6 5 5 6
13 13 13 13 12 12 11 11 11 10 10 9 9 9 9 9 7 8 8 8 8 6 5 5 7 7 7 7 7 5 5 6 5
13 13 13 13 12 12 11 11 11 10 9 9 8 8 8 8 8 8 7 8 8 7 7 6 5 7 7 7 7 6 5 5 5
13 13 13 13 12 12 11 11 11 10 9 8 7 7 6 6 7 7 7 7 7 7 7 7 7 7 7 7 6 7 7 5 5
13 13 13 13 12 12 12 11 11 11 10 9 9 8 10 7 6 7 7 7 6 6 6 6 6 6 6 6 6 6 6 5 5
13 13 13 13 12 12 12 12 11 11 11 10 10 10 8 9 6 5 6 6 6 6 6 6 6 6 6 6 6 6 6 4 4
13 13 13 13 12 12 12 12 12 11 11 11 10 10 9 9 8 7 5 6 6 6 6 6 6 6 6 6 6 6 6 4 4
Height
1536 1537 1538 1539 1539 1540 1540 1540 1540 1540 1540 1541 1542 1543 1544 1545 1547 1548 1549 1549 1547 1545 1544 1542 1542 1541 1540 1539 1538 1538 1536 1536 1535
1536 1537 1538 1539 1539 1540 1540 1540 1541 1541 1542 1543 1543 1544 1545 1547 1548 1549 1550 1550 1549 1547 1545 1545 1544 1543 1543 1542 1541 1540 1538 1538 1537
1536 1537 1538 1539 1539 1540 1541 1541 1542 1543 1543 1544 1545 1545 1546 1548 1549 1550 1550 1550 1550 1549 1549 1548 1547 1546 1545 1544 1543 1542 1542 1542 1541
1536 1537 1538 1539 1540 1541 1541 1542 1543 1544 1545 1545 1547 1547 1547 1550 1550 1552 1553 1552 1552 1552 1552 1551 1549 1547 1546 1545 1544 1544 1544 1543 1542
1536 1537 1538 1540 1540 1541 1542 1543 1544 1545 1546 1547 1548 1549 1550 1553 1554 1554 1554 1555 1555 1554 1553 1552 1551 1549 1547 1546 1545 1546 1545 1543 1542
1536 1537 1538 1540 1540 1542 1543 1544 1545 1546 1548 1549 1550 1550 1552 1555 1557 1557 1556 1557 1556 1556 1555 1554 1552 1550 1548 1547 1547 1546 1546 1544 1542
1535 1537 1538 1540 1541 1542 1544 1545 1546 1548 1550 1551 1553 1553 1554 1557 1558 1558 1559 1559 1558 1557 1556 1555 1553 1551 1550 1550 1549 1548 1548 1545 1544
1535 1536 1538 1540 1541 1543 1544 1546 1548 1549 1551 1553 1555 1555 1555 1558 1559 1560 1561 1561 1560 1559 1558 1556 1555 1552 1552 1551 1550 1549 1549 1547 1545
1533 1535 1537 1539 1541 1543 1545 1547 1548 1550 1552 1554 1557 1557 1557 1558 1559 1561 1563 1562 1562 1561 1560 1559 1557 1555 1554 1552 1552 1552 1551 1549 1546
1532 1534 1537 1539 1541 1543 1544 1547 1548 1550 1552 1554 1556 1558 1559 1560 1561 1562 1563 1563 1564 1563 1562 1561 1560 1558 1556 1554 1554 1555 1553 1550 1549
1531 1533 1536 1538 1541 1542 1545 1546 1549 1550 1552 1554 1556 1558 1560 1561 1562 1563 1564 1564 1564 1564 1563 1562 1561 1560 1558 1557 1556 1555 1554 1551 1549
1530 1532 1535 1538 1540 1542 1544 1546 1548 1550 1552 1554 1556 1558 1560 1561 1562 1564 1565 1564 1564 1564 1563 1563 1562 1561 1561 1560 1559 1556 1555 1553 1551
1529 1531 1533 1536 1539 1541 1543 1545 1548 1550 1552 1553 1555 1557 1559 1560 1561 1563 1564 1564 1565 1563 1563 1562 1561 1561 1561 1562 1561 1560 1558 1556 1554
1527 1530 1532 1535 1538 1540 1542 1544 1546 1548 1551 1553 1555 1556 1558 1559 1561 1562 1563 1563 1564 1564 1562 1562 1561 1561 1560 1560 1560 1560 1560 1558 1556
1525 1528 1531 1534 1536 1538 1541 1543 1545 1547 1550 1552 1554 1556 1557 1559 1560 1561 1562 1562 1563 1563 1563 1563 1562 1561 1560 1560 1559 1559 1560 1559 1557
1522 1526 1529 1532 1535 1536 1539 1541 1543 1545 1549 1551 1554 1556 1557 1557 1559 1560 1561 1561 1562 1562 1562 1563 1563 1562 1561 1561 1560 1559 1560 1559 1558
1520 1524 1527 1529 1533 1533 1536 1539 1540 1543 1546 1551 1553 1556 1558 1557 1557 1558 1559 1560 1561 1562 1562 1562 1562 1562 1561 1560 1560 1559 1558 1559 1558
1518 1521 1524 1527 1530 1531 1534 1536 1538 1540 1543 1546 1551 1553 1554 1556 1555 1556 1557 1559 1560 1561 1562 1562 1562 1562 1561 1561 1561 1560 1558 1558 1559
1514 1518 1521 1524 1527 1528 1531 1533 1535 1537 1540 1543 1545 1546 1549 1552 1554 1555 1555 1556 1558 1559 1560 1560 1560 1561 1561 1560 1559 1559 1560 1559 1558
1510 1514 1517 1520 1524 1526 1527 1529 1532 1534 1536 1539 1540 1543 1545 1547 1550 1552 1552 1553 1554 1556 1558 1558 1559 1559 1559 1559 1558 1557 1556 1557 1556
Wind_Speed
7 6 6 5 4 5 5 6 8 8 9 9 8 9 10 11 10 11 14 10 11 9 9 7 7 8 9 8 9 10 15 13 13
7 6 6 6 6 7 8 9 9 10 10 11 11 11 11 12 12 12 12 10 12 12 18 22 21 21 21 20 17 15 16 16 15
7 7 7 7 7 8 9 10 10 10 11 11 12 13 14 12 12 13 12 13 16 19 21 20 18 17 16 17 17 18 18 17 15
8 8 8 8 9 10 10 10 11 11 12 13 14 15 15 13 13 13 12 20 20 19 18 15 14 13 12 12 10 11 10 9 11
10 9 9 9 9 10 11 11 12 13 13 15 18 19 20 14 14 14 18 20 18 14 11 12 11 7 7 8 13 15 12 9 6
12 11 11 10 11 11 11 12 13 13 15 17 18 14 18 14 13 13 20 18 14 10 7 10 7 6 12 14 14 12 13 11 7
14 13 12 11 12 13 13 14 15 15 16 17 14 15 19 13 13 16 16 15 9 7 8 6 7 11 13 14 12 12 12 13 14
14 14 13 13 13 14 14 15 15 14 15 13 12 16 17 17 19 14 16 10 7 10 12 13 13 13 15 13 14 12 13 14 13
16 15 15 14 15 15 15 15 15 15 15 14 13 14 17 19 22 19 13 9 10 9 11 11 13 15 13 13 15 19 13 13 13
16 16 15 15 16 15 16 16 15 15 15 15 14 15 17 19 19 19 15 14 8 6 8 10 13 14 12 12 20 16 8 9 15
16 16 16 16 16 16 16 16 15 15 14 15 15 16 18 17 16 14 12 10 7 6 6 9 11 12 12 12 11 10 11 13 13
16 16 15 16 16 17 17 17 16 15 15 14 14 14 14 14 12 10 6 5 4 5 5 8 11 10 12 11 11 11 11 13 15
16 15 15 16 17 17 17 17 16 15 14 13 13 12 12 11 10 10 8 6 3 2 2 3 7 10 11 11 11 11 11 11 11
17 16 15 16 17 17 17 17 15 16 14 13 12 11 10 10 9 8 7 6 7 5 5 7 7 6 9 10 9 10 11 12 11
18 17 16 17 18 18 18 18 17 15 15 14 12 11 10 9 8 7 6 6 5 5 4 4 4 6 6 7 8 8 9 9 10
19 18 17 17 17 17 18 18 17 17 16 14 11 9 9 9 9 8 7 6 5 4 3 2 2 5 6 6 6 7 8 9 9
20 19 17 17 19 19 19 19 19 18 18 10 10 7 6 8 10 9 9 7 5 4 3 1 1 3 3 4 6 6 5 10 7
21 20 18 18 18 18 19 19 19 18 21 17 7 6 6 11 10 11 10 9 7 5 4 2 1 2 2 3 5 7 5 10 5
24 22 20 19 19 19 19 19 19 19 20 22 21 11 9 8 7 11 13 12 10 8 6 5 2 1 1 2 3 6 5 8 3
26 24 22 21 20 19 19 20 21 20 21 22 23 20 14 11 6 8 12 15 14 12 9 7 6 4 2 2 3 4 1 6 1
Wind_Direction
185 181 169 166 155 136 126 119 116 112 112 115 114 110 108 94 97 97 102 97 76 80 80 86 79 72 59 61 54 53 52 54 54
174 168 159 152 138 128 122 117 114 114 114 114 113 114 113 102 95 95 95 93 93 83 82 79 73 68 64 61 57 55 57 55 50
165 157 147 139 131 124 119 115 113 113 113 111 113 112 109 98 101 99 102 100 96 85 82 79 80 84 86 83 74 68 65 63 63
157 150 143 140 132 128 124 118 117 117 116 116 113 108 107 99 100 96 97 101 93 88 99 100 97 96 92 88 81 81 82 83 82
153 146 143 142 134 134 129 125 123 120 119 117 114 107 89 95 89 96 106 104 100 112 107 99 87 82 67 75 74 62 54 57 75
152 150 147 145 139 136 130 128 124 120 123 123 122 113 108 101 100 106 112 104 118 113 95 78 63 68 73 66 60 62 56 40 50
157 153 150 146 143 140 136 131 127 125 128 126 108 110 112 107 110 114 111 120 104 76 71 59 76 74 67 61 62 63 57 36 55
158 154 151 148 144 144 140 137 135 135 137 130 117 117 124 124 123 115 124 107 70 73 58 68 69 67 65 59 56 66 60 45 51
162 159 156 153 150 151 148 147 143 139 136 131 123 128 126 125 125 129 124 105 89 71 61 56 63 62 59 62 67 59 52 41 38
165 162 160 159 157 158 156 152 148 143 139 139 136 131 135 135 135 133 136 127 113 91 76 66 67 57 55 63 83 64 41 12 49
167 165 163 162 162 160 159 156 153 148 143 144 146 146 144 143 145 146 153 145 142 115 91 85 72 66 59 59 78 85 49 46 54
171 169 167 168 166 165 163 162 158 154 150 150 152 153 163 172 168 159 139 184 212 165 120 94 75 63 66 60 56 62 58 53 48
174 174 173 173 172 170 168 167 161 158 155 154 156 160 164 168 178 185 183 160 124 220 241 119 92 75 79 66 57 45 49 51 50
178 180 178 178 178 176 176 172 171 166 161 163 161 161 167 175 175 173 172 167 138 118 91 88 77 85 83 75 71 55 42 37 34
183 184 182 183 184 181 181 181 174 173 171 165 164 168 175 177 174 180 180 177 165 145 119 82 56 56 55 58 66 68 57 37 27
188 189 187 188 190 187 186 185 185 177 175 166 166 173 183 189 189 187 184 189 188 180 156 142 60 24 40 46 53 75 57 44 25
194 195 192 192 192 190 194 193 187 191 183 176 156 166 191 203 201 198 194 198 202 207 204 219 27 29 47 55 41 35 49 61 8
198 199 199 198 201 199 200 200 202 200 194 184 175 167 198 178 205 208 206 208 207 207 224 246 317 54 47 40 29 25 50 76 24
202 202 202 204 206 203 204 206 206 208 209 204 204 194 179 182 180 209 214 214 210 217 224 229 220 247 11 0 19 17 34 77 57
205 206 206 208 211 210 210 210 211 212 214 215 214 215 210 202 174 189 206 215 218 219 221 224 229 234 244 295 337 356 56 100 40